This demonstration page uses our WeatherBlox Daily Observations layout. Learn more.

Left ArrowRight Arrow

39.08367, -84.50855

Hourly Observations for April 3, 2019

Temp ( °F °C ) Dew Point ( °F °C ) Humidity (%) Winds ( mph kmh ) Pressure ( in mb ) Visibility ( mi km ) Precip ( " mm )
12:53 am 00:53 Clear 41 5 33 0.6 73 73 Calm 30.12 1020 10 16.0934 0 0
1:53 am 01:53 Clear 40 4.4 35 1.7 83 83 Calm 30.13 1020 10 16.0934 0 0
2:53 am 02:53 Clear 40 4.4 33 0.6 77 77 Calm 30.14 1021 10 16.0934 0 0
3:53 am 03:53 Clear 37 2.8 33 0.6 86 86 Calm 30.14 1021 10 16.0934 0 0
4:53 am 04:53 Clear 37 2.8 32 0 82 82 Calm 30.16 1022 10 16.0934 0 0
5:53 am 05:53 Clear 35 1.7 32 0 89 89 Calm 30.2 1023 10 16.0934 0 0
6:53 am 06:53 Clear 35 1.7 32 0 89 89 Calm 30.24 1024 10 16.0934 0 0
7:53 am 07:53 Sunny 35 1.7 32 0 89 89 Calm 30.28 1025 10 16.0934 0 0
8:53 am 08:53 Sunny 41 5 35 1.7 79 79 Calm 30.29 1026 10 16.0934 0 0
9:53 am 09:53 Sunny 50 10 35 1.7 57 57 W 7 11 30.31 1027 10 16.0934 0 0
10:53 am 10:53 Sunny 55 12.8 33 0.6 44 44 VRB 7 11 30.33 1027 10 16.0934 0 0
11:53 am 11:53 Sunny 57 13.9 33 0.6 41 41 Calm 30.34 1028 10 16.0934 0 0
12:53 pm 12:53 Sunny 58 14.4 33 0.6 39 39 VRB 6 9 30.34 1027 10 16.0934 0 0
1:53 pm 13:53 Sunny 60 15.6 31 -0.6 33 33 VRB 6 9 30.33 1027 10 16.0934 0 0
2:53 pm 14:53 Sunny 61 16.1 30 -1.1 31 31 VRB 3 6 30.32 1027 10 16.0934 0 0
3:53 pm 15:53 Sunny 62 16.7 31 -0.6 31 31 VRB 5 7 30.3 1026 10 16.0934 0 0
4:53 pm 16:53 Mostly Cloudy 59 15 33 0.6 38 38 SW 8 13 30.29 1026 10 16.0934 0 0
5:53 pm 17:53 Mostly Cloudy 60 15.6 31 -0.6 33 33 WSW 9 15 30.29 1026 10 16.0934 0 0
6:53 pm 18:53 Cloudy 60 15.6 29 -1.7 31 31 VRB 6 9 30.29 1026 10 16.0934 0 0
7:53 pm 19:53 Mostly Cloudy 58 14.4 28 -2.2 32 32 NW 3 6 30.29 1026 10 16.0934 0 0
8:53 pm 20:53 Clear 52 11.1 35 1.7 53 53 Calm 30.3 1026 10 16.0934 0 0
9:53 pm 21:53 Clear 47 8.3 38 3.3 71 71 Calm 30.32 1027 10 16.0934 0 0
10:53 pm 22:53 Clear 47 8.3 39 3.9 74 74 Calm 30.33 1027 10 16.0934 0 0
11:53 pm 23:53 Clear 46 7.8 39 3.9 77 77 Calm 30.33 1027 10 16.0934 0 0

Powered by AerisWeather